Regional Weather Roundup
Issued by NWS Wakefield, VA

Home | Current Version | Previous Version | Text Only | Print | Product List | Glossary Off
Versions: 1 2 3 4 5 6 7 8 9 10 11 12 13 14 15 16 17 18 19 20 21 22 23 24 25 26 27

000
ASUS41 KAKQ 231215
RWRAKQ

REGIONAL WEATHER ROUNDUP
NATIONAL WEATHER SERVICE WAKEFIELD VA
800 AM EDT TUE MAY 23 2017

Note: "fair" indicates few or no clouds below 12,000 feet with no
significant weather and/or obstructions to visibility. * = Denotes
station may not report precipitation (e.g., rain,snow,etc.),
thunder or fog.

VAZ042-051-052>054-056-231300-
NORTHERN VIRGINIA

CITY           SKY/WX    TMP DP  RH WIND       PRES   REMARKS
WASH NATIONAL  CLOUDY    63  55  75 NE8       29.95S
DULLES         CLOUDY    59  51  75 NE5       29.95F
FORT BELVOIR   PTSUNNY   62  52  70 N3        29.94S
QUANTICO       CLOUDY    63  55  75 N5        29.95R
FREDERICKSBRG* CLOUDY    62  55  77 NE3       29.93F
STAFFORD*      CLOUDY    60  54  82 NE5       29.97F
WARRENTON      CLOUDY    60  51  72 CALM      29.94S
CULPEPER*      CLOUDY    60  55  84 CALM      29.96S
MANASSAS*        N/A     59  52  77 N3        29.95F
LEESBURG*      CLOUDY    59  54  82 N6        29.96F
WINCHESTER     CLOUDY    54  52  94 CALM      29.97R
FRONT ROYAL*   CLOUDY    54  52  94 CALM      29.96R
LURAY*         CLOUDY    57  54  88 NE3       29.95S
$$

VAZ048-049-060>072-079>083-231300-
CENTRAL AND SOUTH CENTRAL VIRGINIA

CITY           SKY/WX    TMP DP  RH WIND       PRES   REMARKS
RICHMOND       LGT RAIN  64  64 100 NE7       29.93R FOG
CHESTERFIELD*  CLOUDY   N/A N/A N/A NE5       29.93S
PETERSBURG*    RAIN      64  63  97 E7        29.93S
HANOVER        CLOUDY    62  58  86 N3        29.94S
TAPPAHANNOCK*  CLOUDY    64  64 100 NE3       29.95R FOG
QUINTON*       CLOUDY    64  64 100 E7        29.93R FOG
CHARLOTTSVILLE CLOUDY    62  54  74 NE6       29.93F
GORDONSVILLE*  CLOUDY    60  55  82 NE3       29.93S
ORANGE*        DRIZZLE   59  52  77 NE3       29.94S
LOUISA*          N/A    N/A N/A N/A MISG      29.93S
BUMPASS*       PTSUNNY   61  53  75 SW5       29.94S
FARMVILLE*     LGT RAIN  62  62  99 E5        29.92S
CREWE*         CLOUDY    59  55  87 CALM      29.94R
FORT PICKETT*  CLOUDY   N/A N/A N/A N7        29.93S
CHASE CITY*    CLOUDY    66  64  94 CALM      29.90F
CLARKSVILLE*   CLOUDY    64  64 100 N3        29.89F
SOUTH HILL*    CLOUDY    65  65 100 N5        29.96S
LAWRENCEVILLE* CLOUDY    65  64  97 CALM      29.91S
EMPORIA*       RAIN      64  64 100 N5        29.92S
$$

VAZ088>098-231300-
SOUTHEAST VIRGINIA

CITY           SKY/WX    TMP DP  RH WIND       PRES   REMARKS
NORFOLK        CLOUDY    66  65  96 NE12      29.91S
VIRGINIA BEACH CLOUDY    65  63  93 NE9       29.91R
NORFOLK NAVAL  CLOUDY    67  64  90 NE8       29.93S FOG
WEST POINT*    CLOUDY    64  64  99 E3        29.95R
SALUDA*        CLOUDY    65  64  97 NE6       29.94R
NEWPORT NEWS   LGT RAIN  66  65  96 NE6       29.92F
LANGLEY AFB    LGT RAIN  66  65  97 NE7       29.91F
FORT EUSTIS    CLOUDY    66  64  94 NE5       29.90F FOG
WILLIAMSBURG*  PTSUNNY   66  66 100 CALM      29.93F
HR EXEC AP*    CLOUDY    66  63  88 NE7       29.89F
FRANKLIN*      DRIZZLE   66  65  94 NE9       29.90S
US460-WAKEFLD  RAIN      65  65 100 NE5       29.91F FOG
$$

VAZ020-022-025-037-045-231300-
WEST CENTRAL AND SOUTHWEST VIRGINIA

CITY           SKY/WX    TMP DP  RH WIND       PRES   REMARKS
STAUNTON*      CLOUDY    57  53  85 NE3       29.95F
WAYNESBORO*    CLOUDY    57  54  90 CALM      29.93F
HOT SPRINGS VA CLOUDY    52  43  71 CALM      30.00R
LYNCHBURG      CLOUDY    62  57  83 NE8       29.92F
DANVILLE       LGT RAIN  63  63 100 VRB7      29.88F
SOUTH BOSTON*  CLOUDY    64  63  94 NE3       29.90F
MARTINSVILLE   LGT RAIN  60  58  95 N3        29.92R
ROANOKE        LGT RAIN  60  54  80 NE8       29.95R
BLACKSBURG     RAIN      58  54  86 E3        29.96F
DUBLIN*        DRIZZLE   58  55  87 E5        29.95F
MARION*        LGT RAIN  58  55  90 E5        29.96S
HILLSVILLE*    LGT RAIN  58  58 100 CALM      29.93S VSB 1
RICHLANDS*     LGT RAIN  58  58 100 SE5       29.91F
WISE*          LGT RAIN  61  59  94 CALM      29.90F
ABINGDON*      CLOUDY    63  58  83 E8        29.89F
$$

MDZ021>025-VAZ099-100-231300-
SOUTHERN MARYLAND AND THE DELMARVA PENINSULA

CITY           SKY/WX    TMP DP  RH WIND       PRES   REMARKS
PATUXENT RIVER CLOUDY    65  64  97 NE10      29.94R FOG
BAY BRIDGE APT CLOUDY    61  57  88 N6        29.95R
LEONARDTOWN    CLOUDY    61  59  94 CALM      29.96R
DOVER          MOSUNNY   61  61 100 NE5       29.95R
GEORGETOWN     CLOUDY    64  60  87 NE9       29.95S FOG
EASTON         PTSUNNY   63  59  88 NE5       29.98S FOG
CAMBRIDGE      SUNNY     63  61  94 NE6       29.94S
SALISBURY      CLOUDY    63  62  97 NE10      29.93F FOG
OCEAN CITY     CLOUDY    63  60  90 NE9       29.95S
WALLOPS ISLAND CLOUDY    64  63  96 NE9       29.93F FOG
ACCOMACK*      CLOUDY    66  48  52 NE7       29.93S
$$

NCZ012>017-030>032-231300-
NORTH CENTRAL AND EASTERN NORTH CAROLINA

CITY           SKY/WX    TMP DP  RH WIND       PRES   REMARKS
ROANOKE RAPIDS LGT RAIN  66  66 100 CALM      29.90R
RALEIGH        LGT RAIN  68  67  96 E3        29.89R FOG
ELIZABETH CITY CLOUDY    68  68 100 NE10      29.90S
AHOSKIE*       RAIN      67  66  99 NE5       29.89F
EDENTON*       CLOUDY    71  69  92 CALM      29.90S
CURRITUCK*     CLOUDY   N/A N/A N/A NE9       29.92S
KILL DEVIL HLS NOT AVBL
MANTEO         CLOUDY    67  66  96 E9        29.92R
CAPE HATTERAS  HVY RAIN  73  69  87 S16G22    29.89F FOG
TARBORO*       NOT AVBL
GOLDSBORO      HVY RAIN  68  68 100 N6        29.86F FOG
WASHINGTON     LGT RAIN  68  67  99 CALM      29.89F
GREENVILLE     RAIN      68  66  94 CALM      29.91F
NEW BERN       LGT RAIN  70  70 100 S3        29.89F FOG
WILMINGTON     CLOUDY    72  71  97 S9        29.86R
$$

VAZ048-231300-
ELSEWHERE

CITY           SKY/WX    TMP DP  RH WIND       PRES   REMARKS
HARRISBURG PA  CLOUDY    57  55  93 CALM      29.96S
BALTIMORE      CLOUDY    60  56  86 NE5       29.95R
ANNAPOLIS      PTSUNNY   63  60  90 N7        29.95R
ANDREWS AFB    CLOUDY    59  59  98 N8        29.93F
PHILADELPHIA   CLOUDY    63  53  70 N7        29.96S
HENDERSON NC   LGT RAIN  64  63  97 NE6       29.90S
GREENSBORO     CLOUDY    64  64 100 E6        29.86F
ROCKY MOUNT    LGT RAIN  68  68 100 CALM      29.89S FOG
$$

VAZ100-231300-
MARINE

STATION/POSITION TIME  TEMP    WIND        PRES    WAVE   SWELL
                       AIR SEA DIR/SP/G            HT/PER HT/PER
                 (UTC) (F)     (DEG/KT/KT) (MB)    (FT/S) (FT/S)
CAPE MAY NJ      1148   61 61   50/  3/  5 1013.7R
LEWES DE         1148   61 62   80/  6/  7 1014.0S
15NM E FENWICK I 1150   58 57  350/  8/  8 1014.3R   4/ 8   3/ 8
OCEAN-CITY-INLET 1148   63 61   40/  4/  6 1014.4R
WACHAPREAGUE VA  1148   64 66   50/  8/ 11 1013.1S
THOMAS POINT MD  1200   63 65   30/ 14/ 15   N/A
GOOSES REEF MD   1150   64      30/ 10/ 12 1014.3S
COVE POINT MD    1148   64      40/ 10/ 14 1014.3R
SOLOMONS ISLAND  1148   64 67   20/  5/  8   N/A
BISHOPS HEAD MD  1148   64 68   50/  8/ 10 1013.9F
PINEY POINT MD   1142           60/  1/  2   N/A
POTOMAC MD       1150   65      60/ 12/ 14 1012.8F
CAMBRIDGE MD     1142   63 69                N/A
LEWISETTA VA     1148   65 69   70/  5/  7 1013.8R
RAPPAHANNOCK LGT 1148           40/ 11/ 12 1014.0S
STINGRAY PT      1150   67      80/ 12/ 14 1013.4S
YORK RVR RNG VA  1148   67      40/ 13/ 15 1012.4F
YORKTOWN VA      1148   66 69   30/  8/ 10 1012.8F
JAMESTOWN VA     1150   65      50/  4/  8   N/A
DOMINION TERM VA 1148   67      30/  7/ 12 1012.9R
KIPTOPEKE VA     1148      66   50/  6/  8   N/A
CHES BAY BRIDGE  1148   66 67   50/ 12/ 13 1012.6S
CAPE HENRY VA    1148   65      40/ 11/ 14   N/A
WILLOUBY STN VA  1148   66      40/ 13/ 15 1012.7R
S CRANEY ISL VA  1148   66      50/ 12/ 15 1012.6R
CAPE HENRY BUOY  1142      63                N/A     3/ 8
1ST LANDING BUOY 1150   66                 1012.9F
CAPE CHARLES BUO 1151      63                N/A     3/ 8
64NM E OF VA BCH 1150   63 64   40/ 16/ 19 1013.2F   3/ 6   2/ 6
DUCK PIER NC     1148   64 65   60/ 12/ 15 1012.6R
44100 DUCK FRF   1135      66                N/A     3/ 7
44056 DUCK FRF   1130      65                N/A     3/ 7
OREGON INLET NC  1142   68 74   40/  5/  8 1012.4R
HATTERAS NC      1148   73 75  160/  5/  7 1012.0F
DIAMOND SHLS NC  1150   74 77  190/ 19/ 21 1012.0F   4/ 5   2/ 9
CAPE LOOKOUT NC  1200   72     190/ 13/ 15 1011.5F
$$




USA.gov is the U.S. government's official web portal to all federal, state and local government web resources and services.